TimeMST,TemperatureF,Dew PointF,Humidity,Sea Level PressureIn,VisibilityMPH,Wind Direction,Wind SpeedMPH,Gust SpeedMPH,PrecipitationIn,Events,Conditions,WindDirDegrees,DateUTC
12:53 AM,28.9,14.0,54,29.91,10.0,WSW,9.2,-,N/A,,Overcast,240,2013-01-31 07:53:00
1:53 AM,32.0,15.1,50,29.92,10.0,West,6.9,-,N/A,,Overcast,260,2013-01-31 08:53:00
2:53 AM,30.9,16.0,54,29.93,10.0,WSW,5.8,-,N/A,,Overcast,250,2013-01-31 09:53:00
3:53 AM,30.0,17.1,59,29.94,10.0,West,4.6,-,N/A,,Overcast,280,2013-01-31 10:53:00
4:29 AM,30.2,19.4,64,29.93,10.0,North,11.5,-,N/A,,Overcast,10,2013-01-31 11:29:00
4:53 AM,28.9,19.9,69,30.00,10.0,North,9.2,-,N/A,,Overcast,360,2013-01-31 11:53:00
5:53 AM,28.0,19.9,72,30.06,10.0,North,8.1,-,N/A,,Overcast,360,2013-01-31 12:53:00
6:53 AM,28.0,19.9,72,30.10,10.0,North,5.8,-,N/A,,Overcast,360,2013-01-31 13:53:00
7:53 AM,28.9,19.0,67,30.12,10.0,North,10.4,-,N/A,,Overcast,10,2013-01-31 14:53:00
8:53 AM,30.0,21.9,72,30.16,10.0,North,15.0,-,N/A,,Mostly Cloudy,10,2013-01-31 15:53:00
9:10 AM,30.2,21.2,69,30.10,7.0,North,13.8,-,0.00,Snow,Light Snow,10,2013-01-31 16:10:00
9:53 AM,33.1,21.9,64,30.18,10.0,NNW,13.8,-,0.00,,Scattered Clouds,340,2013-01-31 16:53:00
10:53 AM,36.0,21.0,55,30.18,10.0,North,17.3,-,N/A,,Clear,360,2013-01-31 17:53:00
11:53 AM,37.0,19.0,48,30.19,10.0,North,18.4,21.9,N/A,,Clear,10,2013-01-31 18:53:00
12:53 PM,37.9,17.1,43,30.17,10.0,North,16.1,24.2,N/A,,Clear,360,2013-01-31 19:53:00
1:53 PM,37.9,17.1,43,30.16,10.0,North,11.5,18.4,N/A,,Clear,10,2013-01-31 20:53:00
2:53 PM,39.0,18.0,43,30.17,10.0,North,9.2,17.3,N/A,,Clear,350,2013-01-31 21:53:00
3:53 PM,35.1,18.0,50,30.19,10.0,ENE,10.4,-,N/A,,Clear,60,2013-01-31 22:53:00
5:53 PM,23.0,12.9,65,30.26,10.0,SE,8.1,-,N/A,,Clear,130,2013-02-01 00:53:00
6:53 PM,19.9,10.9,68,30.29,10.0,SSE,9.2,-,N/A,,Clear,150,2013-02-01 01:53:00
7:53 PM,21.0,12.0,68,30.28,10.0,South,12.7,-,N/A,,Clear,170,2013-02-01 02:53:00
8:53 PM,21.0,16.0,81,30.27,10.0,South,15.0,-,N/A,,Clear,180,2013-02-01 03:53:00
9:53 PM,19.9,17.1,89,30.27,10.0,SSE,9.2,-,N/A,,Clear,160,2013-02-01 04:53:00
10:53 PM,19.9,17.1,89,30.25,10.0,SSW,10.4,-,N/A,,Clear,200,2013-02-01 05:53:00
11:53 PM,17.1,14.0,88,30.26,9.0,SSW,9.2,-,N/A,,Clear,210,2013-02-01 06:53:00